Weather History for KFFO - July, 2013

Change the Weather History Date:

Sunday, July 14, 2013

  Actual Average Record
Temperature  
Mean Temperature 78 °F -  
Max Temperature 88 °F 82 °F - (-1)
Min Temperature 68 °F 61 °F - (-1)
Cooling Degree Days 13    
Growing Degree Days 28 (Base 50)    
Moisture  
Dew Point 64 °F    
Average Humidity 60    
Maximum Humidity 76    
Minimum Humidity 45    
Precipitation  
Precipitation 0.00 in - - ()
Sea Level Pressure  
Sea Level Pressure 30.19 in    
Wind  
Wind Speed 6 mph (East)    
Max Wind Speed 10 mph    
Max Gust Speed -    
Visibility 10 miles    
Events      
Averages and records for this station are not official NWS values.
T = Trace of Precipitation, MM = Missing Value Source: NWS Daily Summary

Daily Weather History Graph

Daily Weather History Graph

Search for Another Location

Airport or City:

Trip Planner

Search our weather history database for the weather conditions in past years. The results will help you decide how hot, cold, wet, or windy it might be!

Date:

Astronomy

Jul. 14, 2013 Rise Set
Actual Time 6:19 AM EDT 9:03 PM EDT
Civil Twilight 5:48 AM EDT 9:35 PM EDT
Nautical Twilight 5:08 AM EDT 10:15 PM EDT
Astronomical Twilight 4:22 AM EDT 11:00 PM EDT
Moon 12:35 PM EDT (7/14) No Moon Set
Length of Visible Light 15h 47m
Length of Day
14h 43m
Waxing Crescent, 35% of the Moon is Illuminated
Jul 14
Waxing Crescent
Jul 15
First Quarter
Jul 22
Full
Jul 29
Last Quarter
Aug 6
New

Hourly Weather History & Observations

Time (EDT) Temp. Heat Index Dew Point Humidity Pressure Visibility Wind Dir Wind Speed Gust Speed Precip Events Conditions
12:55 AM 73.4 °F - 60.8 °F 65% 30.18 in 10.0 mi East 5.8 mph - N/A   Clear
12:58 AM 73.0 °F - 59.9 °F 63% 30.17 in 10.0 mi ENE 5.8 mph - N/A   Clear
1:58 AM 72.3 °F - 60.1 °F 65% 30.16 in 10.0 mi ENE 6.9 mph - N/A   Clear
2:58 AM 69.8 °F - 60.6 °F 73% 30.17 in 10.0 mi NNE 4.6 mph - N/A   Clear
3:58 AM 70.5 °F - 60.3 °F 70% 30.16 in 10.0 mi ENE 4.6 mph - N/A   Clear
4:55 AM 71.6 °F - 60.8 °F 69% 30.17 in 10.0 mi Variable 1.2 mph - N/A   Clear
4:58 AM 71.6 °F - 60.8 °F 69% 30.17 in 10.0 mi Calm Calm - N/A   Clear
5:58 AM 68.4 °F - 60.6 °F 76% 30.17 in 10.0 mi NNE 3.5 mph - N/A   Clear
6:58 AM 68.9 °F - 61.2 °F 76% 30.19 in 10.0 mi NNE 4.6 mph - N/A   Clear
7:58 AM 72.5 °F - 62.1 °F 70% 30.20 in 10.0 mi NE 3.5 mph - N/A   Clear
8:58 AM 77.9 °F - 62.6 °F 59% 30.21 in 10.0 mi ESE 10.4 mph - N/A   Clear
9:59 AM 80.1 °F 81.5 °F 63.1 °F 56% 30.21 in 10.0 mi SE 6.9 mph - N/A   Clear
10:58 AM 81.9 °F 83.1 °F 63.1 °F 53% 30.21 in 10.0 mi ESE 10.4 mph - N/A   Partly Cloudy
11:56 AM 83.5 °F 84.5 °F 63.1 °F 50% 30.21 in 10.0 mi ESE 8.1 mph - N/A   Scattered Clouds
12:58 PM 85.5 °F 86.6 °F 63.7 °F 48% 30.20 in 10.0 mi SE 6.9 mph - N/A   Scattered Clouds
1:59 PM 86.9 °F 88.6 °F 65.1 °F 48% 30.20 in 10.0 mi ESE 10.4 mph - N/A   Scattered Clouds
2:57 PM 87.6 °F 89.4 °F 65.3 °F 47% 30.20 in 10.0 mi SE 8.1 mph - N/A   Scattered Clouds
3:55 PM 88.0 °F 90.0 °F 65.5 °F 47% 30.19 in 10.0 mi SE 9.2 mph - N/A   Scattered Clouds
4:55 PM 87.4 °F 89.1 °F 64.9 °F 47% 30.19 in 10.0 mi SE 9.2 mph - N/A   Scattered Clouds
5:59 PM 88.2 °F 89.6 °F 64.6 °F 45% 30.18 in 10.0 mi East 9.2 mph - N/A   Scattered Clouds
6:55 PM 87.8 °F 89.7 °F 65.3 °F 47% 30.17 in 10.0 mi SE 6.9 mph - N/A   Partly Cloudy
7:55 PM 86.5 °F 88.7 °F 65.7 °F 50% 30.19 in 10.0 mi ESE 8.1 mph - N/A   Partly Cloudy
8:55 PM 83.8 °F 86.3 °F 66.7 °F 56% 30.19 in 10.0 mi East 5.8 mph - N/A   Scattered Clouds
9:55 PM 81.3 °F 84.0 °F 67.8 °F 63% 30.22 in 10.0 mi East 5.8 mph - N/A   Scattered Clouds
9:58 PM 81.3 °F 84.0 °F 67.8 °F 63% 30.22 in 10.0 mi East 5.8 mph - N/A   Scattered Clouds
10:58 PM 81.1 °F 83.7 °F 67.3 °F 63% 30.23 in 10.0 mi SE 5.8 mph - N/A   Partly Cloudy
11:55 PM 79.5 °F - 66.9 °F 65% 30.24 in 10.0 mi SE 3.5 mph - N/A   Partly Cloudy
11:58 PM 79.5 °F - 66.9 °F 65% 30.24 in 10.0 mi SE 3.5 mph - N/A   Partly Cloudy